Newark Heath, OH

4:02 PM EDT on March 23, 2017 (GMT -0400)
Newark Heath

Weather History for KVTA - August, 2014

Change the Weather History Date:

Thursday, August 21, 2014

  Actual Average Record
Temperature  
Mean Temperature 68 °F -  
Max Temperature 75 °F 81 °F 98 °F (1936)
Min Temperature 64 °F 58 °F 38 °F (1950)
Cooling Degree Days 4    
Growing Degree Days 18 (Base 50)    
Moisture  
Dew Point 67 °F    
Average Humidity 90    
Maximum Humidity 97    
Minimum Humidity 82    
Precipitation  
Precipitation 0.24 in - - ()
Sea Level Pressure  
Sea Level Pressure 30.03 in    
Wind  
Wind Speed 3 mph (SW)    
Max Wind Speed 9 mph    
Max Gust Speed -    
Visibility 6 miles    
Events Fog , Rain    
Averages and records for this station are not official NWS values.
T = Trace of Precipitation, MM = Missing Value Source: NWS Daily Summary

Daily Weather History Graph

Daily Weather History Graph

Search for Another Location

Airport or City:

Trip Planner

Search our weather history database for the weather conditions in past years. The results will help you decide how hot, cold, wet, or windy it might be!

Date:

Astronomy

Aug. 21, 2014 Rise Set
Actual Time 6:47 AM EDT 8:18 PM EDT
Civil Twilight 6:18 AM EDT 8:46 PM EDT
Nautical Twilight 5:44 AM EDT 9:20 PM EDT
Astronomical Twilight 5:07 AM EDT 9:57 PM EDT
Moon 3:16 AM EDT (8/21) 5:46 PM EDT (8/21)
Length of Visible Light 14h 27m
Length of Day
13h 30m
Waning Crescent, 13% of the Moon is Illuminated
Aug 21
Waning Crescent
Aug 25
New
Sep 2
First Quarter
Sep 8
Full
Sep 15
Last Quarter

Hourly Weather History & Observations

Time (EDT) Temp. Dew Point Humidity Pressure Visibility Wind Dir Wind Speed Gust Speed Precip Events Conditions
12:54 AM 66.0 °F 64.9 °F 96% 30.00 in 5.0 mi Calm Calm - N/A   Clear
1:04 AM 66.0 °F 64.9 °F 96% 30.02 in 1.5 mi Calm Calm - N/A   Clear
1:11 AM 66.0 °F 64.0 °F 93% 30.02 in 0.2 mi Calm Calm - N/A Fog Fog
1:25 AM 66.0 °F 64.0 °F 93% 30.02 in 0.8 mi Calm Calm - N/A   Clear
1:32 AM 66.9 °F 64.9 °F 93% 30.01 in 2.0 mi Calm Calm - N/A   Clear
1:43 AM 66.0 °F 64.0 °F 93% 30.01 in 5.0 mi Calm Calm - N/A   Clear
1:54 AM 66.9 °F 64.9 °F 93% 29.99 in 6.0 mi Calm Calm - N/A   Clear
2:54 AM 64.9 °F 63.0 °F 93% 29.99 in 7.0 mi SSW 4.6 mph - N/A   Clear
3:54 AM 66.9 °F 64.9 °F 93% 29.99 in 8.0 mi South 3.5 mph - N/A   Clear
4:54 AM 66.0 °F 64.0 °F 93% 30.00 in 7.0 mi Calm Calm - N/A   Clear
5:54 AM 68.0 °F 64.9 °F 90% 30.01 in 6.0 mi SSE 3.5 mph - N/A   Clear
6:54 AM 68.0 °F 64.9 °F 90% 30.01 in 4.0 mi SSW 4.6 mph - N/A   Clear
7:54 AM 69.1 °F 66.0 °F 90% 30.03 in 4.0 mi SSW 3.5 mph - N/A   Scattered Clouds
8:40 AM 70.0 °F 66.9 °F 90% 30.06 in 5.0 mi Variable 4.6 mph - N/A   Mostly Cloudy
8:54 AM 70.0 °F 66.9 °F 90% 30.05 in 5.0 mi SW 3.5 mph - N/A   Mostly Cloudy
9:54 AM 71.1 °F 66.9 °F 87% 30.04 in 8.0 mi SSW 5.8 mph - N/A   Overcast
10:54 AM 71.1 °F 68.0 °F 90% 30.05 in 4.0 mi Calm Calm - 0.02 in Rain Light Rain
11:47 AM 73.9 °F 69.1 °F 85% 30.07 in 9.0 mi SW 4.6 mph - 0.00 in   Scattered Clouds
11:54 AM 73.9 °F 70.0 °F 87% 30.06 in 9.0 mi WSW 5.8 mph - 0.00 in   Mostly Cloudy
12:44 PM 72.0 °F 69.1 °F 91% 30.11 in 2.5 mi WSW 9.2 mph - 0.05 in Rain Rain
12:54 PM 72.0 °F 68.0 °F 87% 30.09 in 2.0 mi WSW 6.9 mph - 0.09 in Rain Rain
1:02 PM 71.1 °F 68.0 °F 90% 30.10 in 1.5 mi West 6.9 mph - 0.03 in Rain Rain
1:19 PM 71.1 °F 68.0 °F 90% 30.10 in 3.0 mi SW 4.6 mph - 0.08 in Rain Rain
1:54 PM 72.0 °F 69.1 °F 91% 30.08 in 5.0 mi SW 6.9 mph - 0.11 in Rain Light Rain
2:33 PM 72.0 °F 69.1 °F 91% 30.07 in 8.0 mi SSW 6.9 mph - 0.02 in Rain Light Rain
2:54 PM 72.0 °F 69.1 °F 91% 30.05 in 10.0 mi SSW 8.1 mph - 0.02 in Rain Light Rain
3:09 PM 73.0 °F 69.1 °F 87% 30.04 in 10.0 mi SSW 5.8 mph - 0.00 in Rain Light Rain
3:54 PM 73.9 °F 69.1 °F 85% 30.01 in 10.0 mi SSW 8.1 mph - 0.00 in Rain Light Rain
4:03 PM 73.9 °F 69.1 °F 85% 30.03 in 10.0 mi SW 9.2 mph - 0.00 in   Overcast
4:10 PM 73.9 °F 69.1 °F 85% 30.03 in 10.0 mi SW 8.1 mph - 0.00 in   Overcast
4:54 PM 73.9 °F 69.1 °F 85% 29.98 in 10.0 mi SSW 9.2 mph - 0.00 in Rain Light Rain
5:54 PM 73.9 °F 68.0 °F 82% 30.01 in 10.0 mi WSW 4.6 mph - 0.00 in   Mostly Cloudy
6:54 PM 73.9 °F 68.0 °F 82% 30.02 in 10.0 mi SW 5.8 mph - N/A   Mostly Cloudy
7:54 PM 72.0 °F 66.9 °F 84% 30.02 in 10.0 mi SW 3.5 mph - N/A   Partly Cloudy
8:54 PM 68.0 °F 66.0 °F 93% 30.02 in 9.0 mi Calm Calm - N/A   Scattered Clouds
9:16 PM 68.0 °F 66.0 °F 93% 30.03 in 1.5 mi Calm Calm - N/A   Partly Cloudy
9:38 PM 68.0 °F 66.0 °F 93% 30.04 in 1.8 mi Calm Calm - N/A   Clear
9:46 PM 66.9 °F 66.0 °F 97% 30.05 in 0.8 mi Calm Calm - N/A   Clear
9:50 PM 66.2 °F 64.4 °F 94% 30.05 in 2.0 mi Calm Calm - N/A   Partly Cloudy
9:54 PM 66.9 °F 64.9 °F 93% 30.04 in 4.0 mi Calm Calm - N/A   Scattered Clouds
9:58 PM 66.9 °F 66.0 °F 97% 30.04 in 2.5 mi Calm Calm - N/A   Mostly Cloudy
10:11 PM 69.1 °F 66.9 °F 93% 30.04 in 8.0 mi East 3.5 mph - N/A   Mostly Cloudy
10:54 PM 70.0 °F 68.0 °F 93% 30.01 in 10.0 mi Calm Calm - N/A   Overcast
11:14 PM 71.1 °F 68.0 °F 90% 30.04 in 10.0 mi Calm Calm - N/A   Overcast
11:54 PM 70.0 °F 68.0 °F 93% 30.02 in 10.0 mi Calm Calm - N/A   Overcast